TimeEST,TemperatureF,Dew PointF,Humidity,Sea Level PressureIn,VisibilityMPH,Wind Direction,Wind SpeedMPH,Gust SpeedMPH,PrecipitationIn,Events,Conditions,WindDirDegrees,DateUTC
12:15 AM,30.2,26.6,86,30.10,4.0,Calm,Calm,-,N/A,,Overcast,0,2013-01-30 05:15:00
12:35 AM,30.2,28.4,93,30.09,4.0,Calm,Calm,-,N/A,,Overcast,0,2013-01-30 05:35:00
12:55 AM,30.2,28.4,93,30.08,3.0,Calm,Calm,-,N/A,,Overcast,0,2013-01-30 05:55:00
1:35 AM,30.2,30.2,100,30.06,2.0,Calm,Calm,-,N/A,,Overcast,0,2013-01-30 06:35:00
1:55 AM,30.2,30.2,100,30.05,1.8,SSW,3.5,-,0.01,,Overcast,200,2013-01-30 06:55:00
2:15 AM,30.2,28.4,93,30.05,2.0,SSW,4.6,-,N/A,,Overcast,210,2013-01-30 07:15:00
2:35 AM,32.0,30.2,93,30.03,2.0,SSW,4.6,-,0.01,,Overcast,200,2013-01-30 07:35:00
2:55 AM,32.0,32.0,100,30.02,1.5,South,5.8,-,0.01,,Overcast,190,2013-01-30 07:55:00
3:15 AM,32.0,32.0,100,30.03,2.5,South,5.8,-,0.01,,Overcast,190,2013-01-30 08:15:00
3:35 AM,32.0,32.0,100,30.02,3.0,South,4.6,-,0.01,,Overcast,180,2013-01-30 08:35:00
3:55 AM,33.8,32.0,93,30.00,2.5,South,5.8,-,0.03,,Overcast,180,2013-01-30 08:55:00
4:15 AM,33.8,32.0,93,29.99,2.5,South,5.8,-,0.01,,Overcast,190,2013-01-30 09:15:00
4:35 AM,33.8,32.0,93,29.98,3.0,South,6.9,-,0.03,,Overcast,190,2013-01-30 09:35:00
4:55 AM,33.8,32.0,93,29.97,5.0,South,6.9,-,0.03,,Overcast,190,2013-01-30 09:55:00
5:15 AM,33.8,33.8,100,29.96,3.0,South,6.9,-,0.02,,Overcast,190,2013-01-30 10:15:00
5:35 AM,33.8,33.8,100,29.95,5.0,South,5.8,-,0.03,,Overcast,190,2013-01-30 10:35:00
5:56 AM,33.8,33.8,100,29.94,5.0,South,5.8,-,N/A,,Overcast,180,2013-01-30 10:56:00
6:15 AM,33.8,33.8,100,29.94,3.0,South,8.1,-,N/A,,Overcast,190,2013-01-30 11:15:00
6:35 AM,33.8,33.8,100,29.93,3.0,South,5.8,-,N/A,,Overcast,190,2013-01-30 11:35:00
6:55 AM,33.8,33.8,100,29.92,1.0,South,4.6,-,N/A,,Overcast,190,2013-01-30 11:55:00
7:15 AM,33.8,32.0,93,29.92,0.5,South,8.1,-,N/A,,Overcast,190,2013-01-30 12:15:00
7:55 AM,35.6,33.8,93,29.90,0.8,South,9.2,-,N/A,,Overcast,190,2013-01-30 12:55:00
8:15 AM,35.6,35.6,100,29.89,1.0,South,5.8,-,0.01,,Overcast,190,2013-01-30 13:15:00
8:36 AM,35.6,33.8,93,29.88,1.0,SSW,6.9,-,0.01,,Overcast,210,2013-01-30 13:36:00
8:55 AM,37.4,35.6,93,29.87,0.8,SSW,6.9,-,0.01,,Overcast,210,2013-01-30 13:55:00
9:15 AM,37.4,37.4,100,29.87,1.0,SSW,6.9,-,N/A,,Overcast,200,2013-01-30 14:15:00
9:35 AM,37.4,37.4,100,29.85,1.0,SSW,4.6,-,N/A,,Overcast,200,2013-01-30 14:35:00
9:55 AM,37.4,35.6,93,29.83,0.5,SSW,4.6,-,N/A,,Overcast,210,2013-01-30 14:55:00
10:15 AM,37.4,37.4,100,29.81,0.2,SSW,4.6,-,N/A,,Overcast,210,2013-01-30 15:15:00
10:35 AM,37.4,35.6,93,29.80,0.2,South,5.8,-,N/A,,Overcast,190,2013-01-30 15:35:00
10:55 AM,39.2,37.4,93,29.77,0.2,South,3.5,-,N/A,,Overcast,180,2013-01-30 15:55:00
11:15 AM,39.2,39.2,100,29.76,0.2,SSW,8.1,-,N/A,,Overcast,210,2013-01-30 16:15:00
11:35 AM,41.0,39.2,93,29.72,0.5,South,6.9,-,N/A,,Overcast,180,2013-01-30 16:35:00
11:55 AM,41.0,41.0,100,29.70,0.5,SSW,5.8,-,N/A,,Overcast,200,2013-01-30 16:55:00
12:15 PM,42.8,41.0,93,29.69,0.2,SSW,5.8,-,N/A,,Overcast,200,2013-01-30 17:15:00
12:35 PM,42.8,42.8,100,29.68,0.2,SSW,6.9,-,0.01,,Overcast,200,2013-01-30 17:35:00
12:55 PM,42.8,42.8,100,29.66,0.5,SSW,9.2,-,0.01,,Overcast,200,2013-01-30 17:55:00
1:15 PM,42.8,41.0,93,29.64,0.8,SSW,8.1,-,N/A,,Overcast,200,2013-01-30 18:15:00
1:35 PM,42.8,42.8,100,29.63,0.8,SSW,10.4,-,N/A,,Overcast,200,2013-01-30 18:35:00
1:55 PM,44.6,42.8,93,29.61,0.8,South,6.9,-,N/A,,Overcast,190,2013-01-30 18:55:00
2:15 PM,44.6,42.8,93,29.59,0.5,South,8.1,16.1,N/A,,Overcast,190,2013-01-30 19:15:00
2:35 PM,44.6,44.6,100,29.59,0.5,SSW,9.2,-,N/A,,Overcast,200,2013-01-30 19:35:00
2:55 PM,44.6,44.6,100,29.58,0.2,SSW,8.1,-,N/A,,Overcast,200,2013-01-30 19:55:00
3:15 PM,44.6,44.6,100,29.57,0.2,South,6.9,-,N/A,,Overcast,190,2013-01-30 20:15:00
3:55 PM,44.6,44.6,100,29.54,0.2,SSW,6.9,-,N/A,,Overcast,200,2013-01-30 20:55:00
4:15 PM,44.6,44.6,100,29.53,0.2,South,5.8,-,N/A,,Overcast,190,2013-01-30 21:15:00
4:35 PM,44.6,44.6,100,29.52,0.2,South,5.8,-,N/A,,Overcast,190,2013-01-30 21:35:00
4:55 PM,44.6,42.8,93,29.51,0.2,SSW,8.1,-,N/A,,Overcast,200,2013-01-30 21:55:00
5:15 PM,46.4,44.6,93,29.51,0.5,South,10.4,-,0.01,,Overcast,190,2013-01-30 22:15:00
5:35 PM,46.4,46.4,100,29.51,0.5,SSW,9.2,-,0.01,,Overcast,200,2013-01-30 22:35:00
5:55 PM,46.4,44.6,93,29.50,0.8,South,10.4,16.1,0.01,,Overcast,190,2013-01-30 22:55:00
6:35 PM,48.2,46.4,93,29.50,0.8,South,8.1,-,N/A,,Overcast,190,2013-01-30 23:35:00
6:55 PM,48.2,46.4,93,29.49,1.0,South,6.9,-,N/A,,Overcast,180,2013-01-30 23:55:00
7:15 PM,48.2,48.2,100,29.48,1.8,SSW,9.2,-,N/A,,Overcast,200,2013-01-31 00:15:00
7:35 PM,48.2,48.2,100,29.48,1.5,SSW,6.9,-,N/A,,Overcast,210,2013-01-31 00:35:00
7:55 PM,48.2,46.4,93,29.47,1.0,SSW,9.2,-,N/A,,Overcast,210,2013-01-31 00:55:00
8:15 PM,48.2,46.4,93,29.46,1.0,SSW,9.2,17.3,N/A,,Overcast,210,2013-01-31 01:15:00
8:35 PM,48.2,46.4,93,29.45,1.0,SSW,10.4,17.3,N/A,,Overcast,200,2013-01-31 01:35:00
9:15 PM,48.2,46.4,93,29.43,1.8,SSW,11.5,19.6,N/A,,Overcast,200,2013-01-31 02:15:00
9:35 PM,48.2,46.4,93,29.43,1.0,South,9.2,17.3,N/A,,Overcast,190,2013-01-31 02:35:00
9:55 PM,50.0,50.0,100,29.43,1.0,SSW,6.9,17.3,N/A,,Overcast,200,2013-01-31 02:55:00
10:15 PM,50.0,50.0,100,29.42,1.0,SSW,8.1,-,N/A,,Overcast,210,2013-01-31 03:15:00
10:35 PM,50.0,50.0,100,29.42,0.8,South,5.8,-,N/A,,Overcast,190,2013-01-31 03:35:00
10:55 PM,50.0,50.0,100,29.42,0.5,South,6.9,-,0.01,,Overcast,190,2013-01-31 03:55:00
11:15 PM,50.0,50.0,100,29.40,0.5,SSW,4.6,-,N/A,,Overcast,210,2013-01-31 04:15:00
11:35 PM,50.0,50.0,100,29.40,0.2,South,8.1,-,0.01,,Overcast,190,2013-01-31 04:35:00
11:55 PM,50.0,50.0,100,29.38,0.2,South,8.1,-,0.01,,Overcast,190,2013-01-31 04:55:00